Home   Weather   Mühlhausen/Thüringen   Past weeks

Flag for Germany Past Weather in Mühlhausen/Thüringen, Thuringia, Germany — Yesterday and Last 2 Weeks

41 °F

Passing clouds.

Feels Like: 39 °F
Forecast: 34 / 49 °F
Wind: 3 mph from West

Location: Erfurt-Bindersleben

Current Time: Oct 22, 2016 at 8:02:02 PM

Latest Report: Oct 22, 2016 at 7:20 PM

Visibility: N/A

Pressure: 29.95 "Hg

Humidity: 93%

Dew Point: 39 °F

Location of Mühlhausen/ThüringenLocation

Past Weather in Mühlhausen/Thüringen — Graph


Mühlhausen/Thüringen Temperature Yesterday

Maximum temperature yesterday: 45 °F (at 11:20 AM)
Minimum temperature yesterday: 39 °F (at 8:20 AM)
Average temperature yesterday: 42 °F

High & Low Weather Summary for the Past Weeks

High63 °F (Oct 16, 1:20 PM)100% (Oct 7, 8:50 PM)30.27 "Hg (Oct 7, 8:50 PM)
Low39 °F (Oct 9, 7:50 AM)62% (Oct 9, 2:20 PM)29.74 "Hg (Oct 15, 1:20 AM)
Average46 °F91%30.06 "Hg
* Reported Oct 7 6:20 PM — Oct 22 6:50 PM, Mühlhausen/Thüringen, Weather by CustomWeather, © 2016

Note: Actual official high and low records may vary slightly from our data, if they occured in-between our weather recording intervals... More about our weather records


Mühlhausen/Thüringen Weather History for the Previous 24 Hours

Scroll right to see more
Time TempWeatherWind HumidityBarometerVisibility
6:50 PM
Sat, Oct 22
43 °FPassing clouds.3 mph93%29.92 "HgN/A
6:20 PM43 °FPassing clouds.3 mph93%29.92 "HgN/A
5:50 PM43 °FPartly sunny.2 mph93%29.92 "HgN/A
5:20 PM43 °FLight rain. Partly sunny.3 mph93%29.92 "HgN/A
4:50 PM45 °FLight rain. Broken clouds.8 mph81%29.92 "HgN/A
4:20 PM45 °FPartly sunny.3 mph81%29.92 "HgN/A
3:50 PM45 °FLight rain. Broken clouds.6 mph87%29.89 "HgN/A
3:20 PM45 °FBroken clouds.2 mph87%29.89 "HgN/A
2:50 PM45 °FBroken clouds.3 mph87%29.89 "HgN/A
2:20 PM45 °FLight rain. Broken clouds.2 mph87%29.89 "HgN/A
1:50 PM45 °FLight rain. Broken clouds.5 mph87%29.89 "HgN/A
1:20 PM45 °FLight rain. Broken clouds.7 mph87%29.89 "HgN/A
12:50 PM43 °FBroken clouds.8 mph87%29.89 "HgN/A
12:20 PM43 °FBroken clouds.6 mph93%29.89 "HgN/A
11:50 AM43 °FLight rain. Partly sunny.8 mph93%29.89 "HgN/A
11:20 AM41 °FDrizzle. Partly sunny.7 mph93%29.89 "HgN/A
10:50 AM41 °FDrizzle. Low clouds.9 mph93%29.89 "HgN/A
10:20 AM41 °FDrizzle. Partly sunny.6 mph93%29.89 "HgN/A
9:50 AM41 °FPartly sunny.6 mph93%29.89 "HgN/A
9:20 AM41 °FMostly cloudy.7 mph93%29.89 "HgN/A
8:50 AM41 °FDrizzle. Mostly cloudy.7 mph93%29.86 "Hg5 mi
8:20 AM41 °FDrizzle. Mostly cloudy.7 mph93%29.86 "Hg4 mi
7:50 AM41 °FDrizzle. Mostly cloudy.5 mph93%29.86 "Hg4 mi
7:20 AM41 °FDrizzle. Fog.2 mph100%29.86 "Hg3 mi
6:50 AM41 °FDrizzle. Fog.3 mph93%29.86 "Hg3 mi
6:20 AM41 °FPassing clouds.5 mph93%29.86 "HgN/A
5:50 AM41 °FLight rain. Passing clouds.5 mph93%29.86 "HgN/A
5:20 AM39 °FRain. Passing clouds.5 mph100%29.86 "Hg5 mi
4:50 AM41 °FLight rain. Passing clouds.8 mph93%29.86 "HgN/A
4:20 AM41 °FLight rain. Partly cloudy.3 mph93%29.86 "Hg5 mi
3:50 AM41 °FLight rain. Partly cloudy.5 mph93%29.89 "HgN/A
3:20 AM41 °FLight rain. Passing clouds.6 mph93%29.89 "HgN/A
2:20 AM41 °FLight rain. Passing clouds.3 mph93%29.92 "HgN/A
1:50 AM41 °FLight rain. Partly cloudy.6 mph93%29.92 "HgN/A
1:20 AM41 °FPassing clouds.6 mph87%29.92 "HgN/A
12:50 AM41 °FPartly cloudy.5 mph93%29.92 "HgN/A
12:20 AM41 °FClear.6 mph87%29.92 "Hg10 mi
11:50 PM
Fri, Oct 21
41 °FClear.7 mph93%29.92 "Hg10 mi
11:20 PM39 °FPassing clouds.7 mph93%29.92 "HgN/A
10:50 PM41 °FPassing clouds.9 mph87%29.92 "HgN/A
10:20 PM41 °FPartly cloudy.7 mph93%29.92 "HgN/A
9:50 PM41 °FLight rain. Partly cloudy.7 mph93%29.92 "HgN/A
9:20 PM43 °FLight rain. Partly cloudy.6 mph87%29.92 "HgN/A
8:50 PM43 °FPassing clouds.7 mph87%29.92 "HgN/A
8:20 PM43 °FPassing clouds.7 mph87%29.92 "HgN/A
Weather by CustomWeather, © 2016

See weather overviewHow to use our weather pages